User: anonymous   Login
Location: الشقيري
(17.1356°N, 42.8272°E)
Time: 05:29:15
(UTC+00:00)
Language:

Vanguard 1 - Orbit

View from above orbital plane
View from above orbital plane
View from above satellite
View from above satellite

Ground track
Ground track

The orbit data is extracted from the following two-line orbital elements,

1     5U 58002B   19285.18953203  .00000126  00000-0  15213-3 0  9990
2     5  34.2541 276.1599 1842907 310.6865  34.7302 10.84773523178280
Epoch (UTC): 12 October 2019 04:32:55
Eccentricity: 0.1842907
inclination: 34.2541°
perigee height: 653 km
apogee height: 3830 km
right ascension of ascending node: 276.1599°
argument of perigee: 310.6865°
revolutions per day: 10.84773523
mean anomaly at epoch: 34.7302°
orbit number at epoch: 17828

The dashed part of the orbit path shows where the satellite is in the earth's shadow,  

DLR